Location: Wawayanda State Park
(41.1833°N, 74.4333°W)
Time: 22:35:01
(UTC-04:00)

RESURS DK-1 - Visible Passes

Search period start: 30 June 2016 00:00
Search period end: 10 July 2016 00:00
Orbit: 557 x 564 km, 69.9° (Epoch: 30 June)

Date Brightness Start Highest point End Pass type
(mag) Time Alt. Az. Time Alt. Az. Time Alt. Az.
30 Jun 3.1 01:33:53 47° ENE 01:33:53 47° ENE 01:37:10 10° NNE visible
30 Jun 4.7 03:09:48 12° WNW 03:11:31 15° NW 03:13:53 10° NNW visible
01 Jul 2.8 01:32:36 59° NE 01:32:36 59° NE 01:36:03 10° NNE visible
01 Jul 4.9 03:09:12 10° WNW 03:10:31 11° NW 03:11:51 10° NNW visible
02 Jul 2.8 01:31:17 61° N 01:31:17 61° N 01:34:52 10° NNE visible
03 Jul 3.0 01:29:56 50° NW 01:29:56 50° NW 01:33:38 10° NNE visible
03 Jul 4.7 23:52:37 13° ENE 23:52:37 13° ENE 23:53:29 10° ENE visible
04 Jul 3.4 01:28:32 38° NW 01:28:32 38° NW 01:32:20 10° N visible
04 Jul 4.4 23:51:11 18° ENE 23:51:11 18° ENE 23:52:46 10° NE visible
05 Jul 3.9 01:27:05 29° WNW 01:27:19 29° WNW 01:30:59 10° N visible
05 Jul 4.0 23:49:42 25° ENE 23:49:42 25° ENE 23:51:52 10° NE visible
06 Jul 4.3 01:25:35 21° WNW 01:26:15 22° NW 01:29:33 10° N visible
06 Jul 3.5 23:48:08 34° ENE 23:48:08 34° ENE 23:50:52 10° NE visible
07 Jul 4.7 01:24:02 16° WNW 01:25:12 17° NW 01:28:00 10° N visible
07 Jul 2.9 23:46:32 50° ENE 23:46:32 50° ENE 23:49:47 10° NNE visible
08 Jul 5.0 01:22:25 11° WNW 01:24:11 13° NW 01:26:14 10° NNW visible
08 Jul 2.4 23:44:50 74° NNE 23:44:50 74° NNE 23:48:39 10° NNE visible
09 Jul 5.3 01:22:35 10° NW 01:23:11 10° NW 01:23:45 10° NW visible
09 Jul 2.6 23:43:03 63° W 23:43:18 65° WNW 23:47:26 10° NNE visible
